N17X KCRP-

Flight info

Callsign N17X
Flight time N/A
Altitude VFR
Route EAST
Aircraft H500/L-VGD/C

Departure

Time 2026-05-08 00:20
Airport Corpus Christi International Airport (KCRP)

Arrival

Time N/A
Airport -
Time Latitude Longitude Altitude Speed Heading
2026-05-08 00:18 27.77603 -97.50477 47 ft 0 kts 340°
2026-05-08 00:19 27.77595 -97.50478 66 ft 4 kts 38°
2026-05-08 00:20 27.77582 -97.50268 155 ft 59 kts 101°
2026-05-08 00:20 27.77454 -97.49812 432 ft 67 kts 96°
2026-05-08 00:20 27.77563 -97.49256 568 ft 83 kts 76°
2026-05-08 00:20 27.77705 -97.48597 715 ft 89 kts 76°
2026-05-08 00:21 27.77807 -97.47885 820 ft 95 kts 81°
2026-05-08 00:21 27.77867 -97.47132 919 ft 98 kts 81°
2026-05-08 00:21 27.77900 -97.46350 955 ft 102 kts 82°
2026-05-08 00:21 27.77929 -97.45537 945 ft 104 kts 84°
2026-05-08 00:22 27.77991 -97.44735 1020 ft 102 kts 81°
2026-05-08 00:22 27.78046 -97.44200 1008 ft 105 kts 81°
2026-05-08 00:22 27.78127 -97.43377 1005 ft 104 kts 81°
2026-05-08 00:22 27.78062 -97.42573 1006 ft 104 kts 102°
2026-05-08 00:23 27.77830 -97.41851 1008 ft 102 kts 101°
2026-05-08 00:23 27.77732 -97.41083 1009 ft 97 kts 84°
2026-05-08 00:23 27.77854 -97.40332 1010 ft 101 kts 69°
2026-05-08 00:23 27.78185 -97.39614 1005 ft 104 kts 56°
2026-05-08 00:24 27.78667 -97.39011 1003 ft 103 kts 42°
2026-05-08 00:24 27.79327 -97.38658 1008 ft 109 kts 24°
2026-05-08 00:24 27.80081 -97.38455 1006 ft 112 kts 17°
2026-05-08 00:24 27.80837 -97.38262 1004 ft 111 kts 16°
2026-05-08 00:25 27.81612 -97.38221 1006 ft 112 kts
2026-05-08 00:25 27.82387 -97.38263 1005 ft 110 kts
2026-05-08 00:25 27.83127 -97.38136 1006 ft 105 kts 25°
2026-05-08 00:25 27.83713 -97.37673 1005 ft 103 kts 47°
2026-05-08 00:26 27.84154 -97.37037 1003 ft 102 kts 54°
2026-05-08 00:26 27.84565 -97.36376 999 ft 104 kts 53°
2026-05-08 00:26 27.84979 -97.35696 999 ft 106 kts 55°
2026-05-08 00:26 27.85423 -97.35028 996 ft 106 kts 54°
2026-05-08 00:27 27.85867 -97.34376 994 ft 103 kts 52°
2026-05-08 00:27 27.86210 -97.33670 997 ft 104 kts 65°
2026-05-08 00:27 27.86443 -97.32895 996 ft 105 kts 71°
2026-05-08 00:27 27.86675 -97.32117 996 ft 107 kts 70°
2026-05-08 00:28 27.86915 -97.31318 993 ft 106 kts 69°
2026-05-08 00:28 27.87152 -97.30537 1005 ft 106 kts 68°
2026-05-08 00:28 27.87386 -97.29745 1005 ft 106 kts 68°
2026-05-08 00:28 27.87516 -97.28910 1008 ft 111 kts 82°
2026-05-08 00:29 27.87566 -97.28017 1010 ft 117 kts 86°
2026-05-08 00:29 27.87582 -97.27086 1005 ft 119 kts 88°
2026-05-08 00:29 27.87376 -97.26174 1009 ft 121 kts 104°
2026-05-08 00:29 27.86905 -97.25372 1008 ft 127 kts 126°
2026-05-08 00:30 27.86230 -97.24723 1008 ft 129 kts 134°
2026-05-08 00:30 27.85502 -97.24109 1008 ft 131 kts 133°
2026-05-08 00:30 27.84795 -97.23467 1007 ft 128 kts 131°
2026-05-08 00:30 27.84128 -97.22813 1011 ft 127 kts 130°
2026-05-08 00:31 27.83504 -97.22110 1014 ft 129 kts 113°
2026-05-08 00:31 27.82949 -97.21296 1007 ft 133 kts 107°
2026-05-08 00:31 27.82538 -97.20376 1012 ft 132 kts 89°
2026-05-08 00:31 27.82366 -97.19362 1005 ft 131 kts 81°
2026-05-08 00:32 27.82326 -97.18355 1029 ft 122 kts 77°
2026-05-08 00:32 27.82316 -97.17459 1037 ft 109 kts 79°
2026-05-08 00:32 27.82236 -97.16643 1039 ft 101 kts 83°
2026-05-08 00:32 27.82114 -97.15888 1037 ft 93 kts 88°
2026-05-08 00:33 27.81995 -97.15196 1039 ft 87 kts 88°
2026-05-08 00:33 27.81893 -97.14528 1031 ft 87 kts 89°
2026-05-08 00:33 27.81816 -97.13820 910 ft 95 kts 87°
2026-05-08 00:33 27.81740 -97.13058 838 ft 100 kts 88°
2026-05-08 00:34 27.81659 -97.12269 775 ft 102 kts 85°
2026-05-08 00:34 27.81555 -97.11477 643 ft 102 kts 90°
2026-05-08 00:34 27.81466 -97.10702 472 ft 100 kts 90°
2026-05-08 00:34 27.81228 -97.09978 339 ft 104 kts 121°
2026-05-08 00:35 27.80818 -97.09355 258 ft 93 kts 105°
2026-05-08 00:35 27.80828 -97.08784 122 ft 64 kts 68°
2026-05-08 00:35 27.80923 -97.08480 32 ft 12 kts 50°
2026-05-08 00:35 27.80939 -97.08524 37 ft 22 kts 290°
2026-05-08 00:36 27.80949 -97.08624 19 ft 4 kts 296°
2026-05-08 00:36 27.80951 -97.08640 17 ft 2 kts 350°
2026-05-08 00:36 27.80954 -97.08641 20 ft 2 kts 33°
2026-05-08 00:36 27.80946 -97.08647 26 ft 3 kts 19°
2026-05-08 00:37 27.80946 -97.08654 18 ft 1 kts 18°
2026-05-08 00:37 27.80947 -97.08653 20 ft 1 kts 16°
2026-05-08 00:37 27.80948 -97.08649 19 ft 1 kts 10°
2026-05-08 00:38 27.80948 -97.08648 16 ft 0 kts
2026-05-08 00:38 27.81115 -97.08562 71 ft 46 kts 25°
2026-05-08 00:38 27.81227 -97.08193 180 ft 74 kts 107°
2026-05-08 00:39 27.80698 -97.07916 298 ft 95 kts 165°
2026-05-08 00:39 27.80035 -97.07725 405 ft 101 kts 156°
2026-05-08 00:39 27.79329 -97.07529 451 ft 108 kts 159°
2026-05-08 00:39 27.78574 -97.07347 552 ft 114 kts 167°
2026-05-08 00:40 27.77758 -97.07358 561 ft 121 kts 185°
2026-05-08 00:40 27.76920 -97.07523 600 ft 126 kts 190°
2026-05-08 00:40 27.76054 -97.07729 601 ft 129 kts 191°
2026-05-08 00:40 27.75197 -97.07970 693 ft 121 kts 193°
2026-05-08 00:41 27.74427 -97.08197 836 ft 108 kts 190°
2026-05-08 00:41 27.73743 -97.08420 1003 ft 97 kts 193°
2026-05-08 00:41 27.73023 -97.08660 995 ft 120 kts 192°
2026-05-08 00:41 27.72159 -97.08952 988 ft 136 kts 196°
2026-05-08 00:42 27.71278 -97.09360 984 ft 136 kts 200°
2026-05-08 00:42 27.70430 -97.09789 995 ft 132 kts 201°
2026-05-08 00:42 27.69579 -97.10220 996 ft 137 kts 213°
2026-05-08 00:42 27.69087 -97.11072 993 ft 130 kts 266°
2026-05-08 00:43 27.69315 -97.11976 991 ft 116 kts 320°
2026-05-08 00:43 27.69973 -97.12433 992 ft 110 kts 347°
2026-05-08 00:43 27.70712 -97.12668 988 ft 109 kts 354°
2026-05-08 00:43 27.71459 -97.12778 994 ft 109 kts
2026-05-08 00:44 27.72218 -97.12748 991 ft 109 kts 12°
2026-05-08 00:44 27.72982 -97.12591 991 ft 113 kts 20°
2026-05-08 00:44 27.73730 -97.12340 968 ft 109 kts 23°
2026-05-08 00:44 27.74419 -97.12064 804 ft 100 kts 24°
2026-05-08 00:45 27.75024 -97.11721 589 ft 99 kts 28°
2026-05-08 00:45 27.75548 -97.11256 546 ft 92 kts 36°
2026-05-08 00:45 27.76042 -97.10818 488 ft 89 kts 32°
2026-05-08 00:45 27.76528 -97.10425 488 ft 83 kts 33°
2026-05-08 00:46 27.77020 -97.10069 432 ft 83 kts 33°
2026-05-08 00:46 27.77492 -97.09711 404 ft 82 kts 35°
2026-05-08 00:46 27.77937 -97.09348 384 ft 74 kts 35°
2026-05-08 00:46 27.78353 -97.09037 482 ft 72 kts 28°
2026-05-08 00:47 27.78785 -97.08749 467 ft 72 kts 30°
2026-05-08 00:47 27.79195 -97.08429 422 ft 73 kts 34°
2026-05-08 00:47 27.79600 -97.08050 438 ft 79 kts 35°
2026-05-08 00:47 27.80031 -97.07724 415 ft 71 kts 19°
2026-05-08 00:48 27.80490 -97.07945 318 ft 78 kts 317°
2026-05-08 00:48 27.80755 -97.08356 179 ft 55 kts 306°
2026-05-08 00:48 27.80899 -97.08598 45 ft 12 kts 313°
2026-05-08 00:48 27.80912 -97.08626 19 ft 3 kts 308°
2026-05-08 00:49 27.80912 -97.08627 17 ft 0 kts 300°